User: anonymous   Login
Location: Lourdes
(43.1000°N, 0.0500°W)
Time: 13:14:14
(UTC+00:00)
Language:

Meteor 1-14 Rocket - Orbit

View from above orbital plane
View from above orbital plane
View from above satellite
View from above satellite

Ground track
Ground track

The orbit data is extracted from the following two-line orbital elements,

1 06393U 73015B   21061.80531147  .00000172  00000-0  96990-4 0  9993
2 06393  81.2527  82.6235 0059502  69.2350 291.5180 14.05031489456949
Epoch (UTC): 02 March 2021 19:19:38
Eccentricity: 0.0059502
inclination: 81.2527°
perigee height: 833 km
apogee height: 919 km
right ascension of ascending node: 82.6235°
argument of perigee: 69.2350°
revolutions per day: 14.05031489
mean anomaly at epoch: 291.5180°
orbit number at epoch: 45694

The dashed part of the orbit path shows where the satellite is in the earth's shadow,  

DLR